Simultaneous Nadir Overpasses (SNOs) Predictions

Prediction of SNOs between GOES-14 and NPP Satellite Orbit:

Table of predicted SNOs for the next 14.0 days since TLE Epoch: 11/19/2022
Index Date Time (GOES-14) GOES-14 Lat,Lon NPP Lat,Lon Distance(km) Time Diff (sec)
1 11/19/2022 08:39:52 0.01,-104.35 0.83,-108.03 419.37 80
2 11/20/2022 08:18:26 0.03,-104.33 -0.18,-103.49 96.64 80
3 11/22/2022 20:21:35 -0.02,-104.06 -0.04,-104.24 19.75 80
4 11/23/2022 20:05:29 -0.03,-104.07 0.98, -99.70 498.18 80
5 11/25/2022 08:27:17 0.01,-104.34 0.15,-104.97 72.95 80
6 11/26/2022 08:05:51 0.02,-104.32 -0.86,-100.44 442.43 80
7 11/27/2022 20:27:46 0.00,-104.02 -0.36,-105.72 194.39 80
8 11/28/2022 20:11:40 -0.01,-104.02 0.65,-101.19 323.04 80
9 11/30/2022 08:33:27 -0.02,-104.32 0.47,-106.46 244.42 80
10 12/01/2022 08:12:02 -0.00,-104.30 -0.55,-101.93 271.44 80
11 12/02/2022 20:33:56 0.03,-103.98 -0.67,-107.21 367.96 80
